DW9435 Weather Reports


Display with metric or nautical units.
time (UTC)temp
F
wind
direction
speed
MPH
gust
MPH
rain 1hr
in
rain 24hr
in
rain mn
in
humidity
%
barometer
mb
20260507223057 71 13 5.0 11.0 0.00 0.00 0.00 24 1009.2
20260507221553 71 34 9.0 12.0 0.00 0.00 0.00 23 1009.3
20260507220051 72 15 4.0 13.0 0.00 0.00 0.00 23 1009.6
20260507214550 73 262 0.0 7.0 0.00 0.00 0.00 23 1009.8
20260507213054 72 310 4.0 13.0 0.00 0.00 0.00 23 1010.2
20260507211544 71 57 3.0 13.0 0.00 0.00 0.00 24 1010.5
20260507210042 71 271 1.0 8.0 0.00 0.00 0.00 23 1010.8
20260507204544 71 165 2.0 8.0 0.00 0.00 0.00 23 1010.9
20260507203037 71 34 5.0 10.0 0.00 0.00 0.00 22 1011.2
20260507201539 71 255 3.0 11.0 0.00 0.00 0.00 24 1011.3
20260507200037 71 358 1.0 8.0 0.00 0.00 0.00 23 1011.7
20260507194541 69 78 4.0 9.0 0.00 0.00 0.00 23 1011.8
20260507193030 68 18 5.0 10.0 0.00 0.00 0.00 23 1012.1
20260507191526 66 4 4.0 11.0 0.00 0.00 0.00 24 1012.3
20260507190021 66 260 4.0 14.0 0.00 0.00 0.00 24 1012.5
20260507184520 66 10 4.0 13.0 0.00 0.00 0.00 24 1012.8
20260507183025 64 147 12.0 18.0 0.00 0.00 0.00 23 1013.1
20260507181513 62 146 9.0 24.0 0.00 0.00 0.00 24 1013.1
20260507180016 63 162 9.0 20.0 0.00 0.00 0.00 23 1013.3
20260507174512 63 115 10.0 21.0 0.00 0.00 0.00 22 1013.5
20260507173007 61 140 14.0 27.0 0.00 0.00 0.00 23 1013.7
20260507171502 60 156 14.0 24.0 0.00 0.00 0.00 24 1013.8
20260507164629 59 126 8.0 24.0 0.00 0.00 0.00 24 1014.2
20260507163057 59 293 2.0 19.0 0.00 0.00 0.00 24 1014.1
20260507161601 59 274 6.0 18.0 0.00 0.00 0.00 24 1014.0
20260507160054 59 96 7.0 14.0 0.00 0.00 0.00 24 1014.0
20260507154552 58 255 5.0 24.0 0.00 0.00 0.00 24 1014.3
20260507153050 58 297 7.0 20.0 0.00 0.00 0.00 24 1014.2
20260507151546 57 90 5.0 11.0 0.00 0.00 0.00 26 1014.5
20260507150047 56 165 10.0 28.0 0.00 0.00 0.00 26 1014.7
20260507144543 56 145 14.0 32.0 0.00 0.00 0.00 26 1014.7
20260507143057 56 56 12.0 26.0 0.00 0.00 0.00 26 1014.9
20260507141555 55 52 10.0 28.0 0.00 0.00 0.00 26 1014.9
20260507140039 55 79 12.0 25.0 0.00 0.00 0.00 27 1014.8
20260507134540 55 135 13.0 31.0 0.00 0.00 0.00 28 1014.7
20260507133040 55 135 13.0 27.0 0.00 0.00 0.00 27 1014.8
20260507131543 53 104 11.0 32.0 0.00 0.00 0.00 29 1015.0
20260507130041 53 153 11.0 35.0 0.00 0.00 0.00 29 1014.8
20260507124536 54 195 8.0 31.0 0.00 0.00 0.00 29 1015.0
20260507123030 55 165 19.0 30.0 0.00 0.00 0.00 27 1014.6
20260507121527 55 135 13.0 27.0 0.00 0.00 0.00 26 1014.5
20260507120023 55 78 9.0 25.0 0.00 0.00 0.00 26 1014.7
20260507114522 54 133 8.0 22.0 0.00 0.00 0.00 27 1015.0
20260507113018 54 157 12.0 28.0 0.00 0.00 0.00 27 1015.1
20260507111517 54 126 19.0 30.0 0.00 0.00 0.00 27 1014.9
20260507110016 54 166 5.0 27.0 0.00 0.00 0.00 28 1014.9
20260507104513 54 128 12.0 26.0 0.00 0.00 0.00 29 1015.2
20260507103012 55 174 17.0 30.0 0.00 0.00 0.00 28 1015.2
20260507101510 55 138 17.0 31.0 0.00 0.00 0.00 28 1015.5
20260507100008 55 120 18.0 27.0 0.00 0.00 0.00 29 1015.7
20260507094505 55 139 14.0 26.0 0.00 0.08 0.00 28 1016.0
20260507093002 55 96 17.0 24.0 0.00 0.08 0.00 27 1016.0
20260507091601 55 118 16.0 25.0 0.00 0.08 0.00 28 1016.1
20260507090105 55 143 17.0 27.0 0.00 0.08 0.00 28 1016.3
20260507084558 55 125 16.0 26.0 0.00 0.19 0.00 28 1016.3
20260507083057 55 99 16.0 26.0 0.00 0.19 0.00 28 1016.5
20260507081556 55 108 11.0 20.0 0.00 0.19 0.00 29 1016.7
20260507074549 55 123 15.0 24.0 0.00 0.19 0.00 31 1016.8
20260507073045 54 156 11.0 21.0 0.00 0.19 0.00 32 1017.0
20260507071543 54 99 10.0 21.0 0.00 0.19 0.00 33 1017.3
20260507070045 54 177 8.0 16.0 0.00 0.19 0.00 34 1017.2
20260507064601 54 218 10.0 17.0 0.00 0.19 0.00 33 1017.1
20260507063041 55 174 8.0 16.0 0.00 0.19 0.00 34 1017.1
20260507061537 55 147 10.0 20.0 0.00 0.19 0.00 34 1017.2
20260507060034 54 141 11.0 22.0 0.00 0.19 0.00 34 1017.0
20260507054533 54 124 11.0 25.0 0.00 0.19 0.19 39 1017.0
20260507053036 54 172 13.0 21.0 0.00 0.19 0.19 35 1016.8
20260507051532 55 153 8.0 16.0 0.00 0.19 0.19 30 1016.9
20260507050040 55 158 6.0 13.0 0.00 0.19 0.19 29 1017.1
20260507044530 54 135 6.0 9.0 0.00 0.19 0.19 28 1017.1
20260507043030 54 160 2.0 4.0 0.00 0.19 0.19 29 1017.0
20260507041529 54 135 2.0 4.0 0.00 0.19 0.19 28 1017.0
20260507040030 54 131 2.0 4.0 0.00 0.19 0.19 29 1017.1
20260507034530 54 162 2.0 4.0 0.00 0.19 0.19 30 1017.2
20260507033028 54 159 2.0 5.0 0.00 0.19 0.19 29 1016.9
20260507031527 54 166 3.0 4.0 0.00 0.19 0.19 29 1016.6
20260507030029 55 166 3.0 5.0 0.00 0.19 0.19 29 1016.6
20260507024528 56 217 2.0 3.0 0.00 0.19 0.19 29 1016.5
20260507023025 57 297 0.0 3.0 0.00 0.19 0.19 26 1016.6
20260507021525 58 337 2.0 6.0 0.00 0.19 0.19 26 1016.4
20260507020025 59 333 4.0 7.0 0.00 0.19 0.19 25 1016.4
20260507014524 59 345 4.0 8.0 0.00 0.19 0.19 25 1016.5
20260507013023 59 344 4.0 11.0 0.00 0.19 0.19 25 1016.6
20260507011524 60 32 6.0 13.0 0.00 0.19 0.19 25 1016.7
20260507010026 59 51 4.0 15.0 0.00 0.19 0.19 24 1016.7
20260507004522 59 329 8.0 15.0 0.00 0.19 0.19 24 1016.8
20260507003022 59 317 8.0 15.0 0.00 0.19 0.19 24 1016.7
20260507001520 60 36 5.0 15.0 0.00 0.19 0.19 24 1016.8
20260507000018 59 316 6.0 10.0 0.00 0.19 0.19 25 1016.8
20260506234517 58 321 11.0 17.0 0.00 0.19 0.19 25 1016.8
20260506233016 58 34 8.0 18.0 0.00 0.19 0.19 26 1016.7
20260506231513 58 329 8.0 17.0 0.00 0.19 0.19 26 1016.9
20260506230019 58 321 11.0 16.0 0.00 0.19 0.19 26 1016.8
20260506224512 58 327 5.0 20.0 0.00 0.19 0.19 27 1016.9